Terug naar catalogus

STARLINK-5245

ActiefCommunicatieVLEO
NORAD 54168·PAYLOAD·🇺🇸 United States

Gelanceerd Oct 28, 2022 vanaf Vandenberg Space Force Base

Loading…

Volgende Passages (komende 24 uur)

TLE

VersSource: CelesTrak SupGP

Epoch: Sep 15, 2026, 02:25 UTC

1 54168C 22141M   26258.10118056 -.00024129  00000+0 -71281-3 0  2588
2 54168  53.1572 219.1331 0001123  90.1581 234.5354 15.34407345    13

Volg STARLINK-5245 in realtime met AllMySat

Download on the App Store